EW2956 Weather Reports


time (UTC)temp
F
wind
direction
speed
knots
gust
knots
rain 1hr
in
rain 24hr
in
rain mn
in
humidity
%
barometer
mb
20260505040004 60 203 0.0 1.7 0.00 0.00 0.00 63 1009.1
20260505035002 61 218 0.0 1.7 0.00 0.00 0.00 61 1009.0
20260505033002 62 189 1.7 7.0 0.00 0.00 0.00 59 1008.8
20260505024002 62 172 0.9 4.3 0.00 0.00 0.00 57 1008.8
20260505023003 62 185 0.9 5.2 0.00 0.00 0.00 56 1008.9
20260505022002 63 183 0.9 4.3 0.00 0.00 0.00 56 1008.9
20260505021003 63 155 1.7 5.2 0.00 0.00 0.00 55 1008.8
20260505020002 64 143 1.7 10.4 0.00 0.00 0.00 54 1009.0
20260505014002 64 195 1.7 7.0 0.00 0.00 0.00 53 1009.0
20260505013003 64 170 0.9 3.5 0.00 0.00 0.00 52 1009.1
20260505012002 64 157 1.7 7.0 0.00 0.00 0.00 51 1008.9
20260505011003 65 173 1.7 8.7 0.00 0.00 0.00 49 1008.8
20260505010003 65 171 3.5 9.6 0.00 0.00 0.00 49 1008.6
20260505005003 65 160 1.7 12.2 0.00 0.00 0.00 48 1008.6
20260505004003 65 157 1.7 9.6 0.00 0.00 0.00 48 1008.5
20260505003003 66 155 1.7 9.6 0.00 0.00 0.00 48 1008.5
20260505002002 66 143 1.7 7.8 0.00 0.00 0.00 48 1008.4
20260505001002 66 176 1.7 7.8 0.00 0.00 0.00 47 1008.3
20260505000002 67 173 3.5 12.2 0.00 0.00 0.00 47 1008.3
20260504235002 68 181 3.5 9.6 0.00 0.00 0.00 46 1008.3
20260504234003 68 167 3.5 9.6 0.00 0.00 0.00 45 1008.2
20260504233003 68 164 3.5 8.7 0.00 0.00 0.00 45 1008.1
20260504230002 70 168 5.2 13.9 0.00 0.00 0.00 43 1008.1
20260504225003 70 168 4.3 18.2 0.00 0.00 0.00 42 1008.0
20260504224004 71 176 5.2 15.6 0.00 0.00 0.00 41 1008.1
20260504221003 73 187 5.2 13.0 0.00 0.00 0.00 38 1008.0
20260504215002 74 185 3.5 12.2 0.00 0.00 0.00 36 1008.0
20260504214002 74 190 4.3 9.6 0.00 0.00 0.00 36 1008.0
20260504213002 75 192 3.5 12.2 0.00 0.00 0.00 36 1007.9
20260504212003 74 207 3.5 8.7 0.00 0.00 0.00 38 1008.1
20260504211002 74 207 3.5 9.6 0.00 0.00 0.00 37 1008.0
20260504210002 74 204 3.5 10.4 0.00 0.00 0.00 40 1008.1
20260504205002 75 198 4.3 10.4 0.00 0.00 0.00 36 1008.2
20260504203002 74 188 4.3 8.7 0.00 0.00 0.00 38 1008.3
20260504202003 74 216 3.5 12.2 0.00 0.00 0.00 37 1008.5
20260504201003 74 209 4.3 13.9 0.00 0.00 0.00 38 1008.7
20260504195003 72 199 4.3 13.0 0.00 0.00 0.00 38 1008.9
20260504194002 72 200 5.2 13.9 0.00 0.00 0.00 40 1009.0
20260504193002 72 202 4.3 13.0 0.00 0.00 0.00 37 1009.3
20260504192002 72 204 5.2 13.0 0.00 0.00 0.00 39 1009.3
20260504191003 72 204 4.3 10.4 0.00 0.00 0.00 36 1009.3
20260504190003 72 203 3.5 10.4 0.00 0.00 0.00 38 1009.5
20260504185003 72 217 4.3 8.7 0.00 0.00 0.00 36 1009.7
20260504184002 72 188 4.3 12.2 0.00 0.00 0.00 38 1009.7
20260504183002 72 223 4.3 9.6 0.00 0.00 0.00 39 1009.9
20260504182002 72 215 3.5 8.7 0.00 0.00 0.00 39 1010.0
20260504181003 72 206 3.5 9.6 0.00 0.00 0.00 43 1010.1
20260504180002 71 215 4.3 12.2 0.00 0.00 0.00 39 1010.2
20260504175003 71 223 4.3 13.0 0.00 0.00 0.00 40 1010.2
20260504174003 71 183 4.3 9.6 0.00 0.00 0.00 38 1010.4
20260504151003 65 201 3.5 12.2 0.00 0.00 0.00 44 1012.5
20260504082002 36 0 0.0 0.0 0.00 0.00 0.00 86 1013.5
20260504081003 37 0 0.0 0.0 0.00 0.00 0.00 86 1013.5
20260504050002 40 0 0.0 0.0 0.00 0.00 0.00 78 1013.7
20260504045003 40 0 0.0 0.0 0.00 0.00 0.00 77 1013.7
20260504043003 41 0 0.0 0.0 0.00 0.00 0.00 76 1013.7
20260504042003 42 0 0.0 0.0 0.00 0.00 0.00 76 1013.7